Japanese version Home page |
Updated on July 19, 2014 |
|
Orbital ElementsEpoch 2004 Dec. 21.0 TT = JDT 2453360.5 T 2004 Dec. 8.86248 TT MPC q 1.4184624 (2000.0) P Q n 0.09876174 Peri. 144.76143 +0.88083176 -0.43953045 a 4.6352900 Node 242.23644 +0.37579148 +0.87512042 e 0.6939863 Incl. 11.46732 +0.28795170 +0.20242834 P 9.98 From 141 observations 2004 Oct. 7-2014 July 5, mean residual 0".6.
|
Finding Charts
|
Magnitudes Graphm1 = 12.2 + 5 log d + 30 log r(t - 20)
|
The orbital elements are published on M.P.E.C. 2014-N43.
|